Regional Weather Roundup
Issued by NWS Jackson, KY

Home | Current Version | Previous Version | Text Only | Print | Product List | Glossary Off
Versions: 1 2 3 4 5 6 7 8 9 10 11 12 13 14 15 16 17 18 19 20 21 22 23 24 25 26 27 28 29 30 31 32 33 34 35 36 37 38 39 40 41 42 43 44 45 46 47 48 49 50

000
ASUS43 KJKL 061510
RWRJKL

EAST KENTUCKY HOURLY WEATHER ROUNDUP
NATIONAL WEATHER SERVICE JACKSON KY
1100 AM EDT FRI MAY 06 2016

NOTE: "FAIR" INDICATES FEW OR NO CLOUDS BELOW 12,000 FEET WITH
NO SIGNIFICANT WEATHER AND/OR OBSTRUCTIONS TO VISIBILITY.

* THESE REPORTS ARE NOT UNDER NWS QUALITY CONTROL AND MAY NOT
  REPORT WEATHER SUCH AS PRECIPITATION AND FOG.

KYZ079-080-083-085-087-088-110-112-115-119-120-061600
...EASTERN KENTUCKY...

CITY           SKY/WX    TMP DP  RH WIND       PRES   REMARKS
JACKSON        SUNNY     59  44  57 CALM      29.95R
LONDON         SUNNY     60  40  47 N9        29.97S
SOMERSET*      SUNNY     59  43  55 N10       30.01R
MONTICELLO*    SUNNY     60  45  57 N16       30.02S
WILLIAMSBURG*  SUNNY     59  43  55 N6G16     29.98S
MIDDLESBORO*   MOSUNNY   59  45  59 N13       29.97S
HARLAN APT*    PTSUNNY   55  41  58 CALM      29.95S
HAZARD APT*    MOSUNNY   59  46  63 CALM      29.95S
BLACK MTN*       N/A     39  39 100 VRB7        N/A  WCI  34
PIKE CO APT*   PTSUNNY   55  44  68 NW6       29.93R
BIG SANDY APT* MOSUNNY   58  46  63 W3        29.93S
MOREHEAD APT*  SUNNY     61  43  51 VRB6      29.98S
$$

KYZ035-036-041-042-044-050-067-078-099-061600
...CENTRAL KENTUCKY...

CITY           SKY/WX    TMP DP  RH WIND       PRES   REMARKS
MT STERLING*   SUNNY     61  45  55 N7        29.99S
FLEMING/MASON* SUNNY     60  44  55 NW7       29.98S
DANVILLE*      MOSUNNY   61  45  55 N9        30.01S
RICHMOND*      SUNNY     61  41  48 N8        29.98S
LEXINGTON      SUNNY     62  45  53 NW8       29.99S
FRANKFORT        N/A     62  44  51 NE6       29.99
LOUISVILLE     MOSUNNY   64  37  36 N12       30.02R
LEBANON*         N/A     59  48  67 NW6       30.02R
BOWLING GREEN  SUNNY     63  46  54 VRB3      30.04S
$$

KYZ091>093-OHZ055-061-077-WVZ005-015-034-035-042-061600
...SOUTHERN OHIO/WEST VIRGINIA...

CITY           SKY/WX    TMP DP  RH WIND       PRES   REMARKS
COVINGTON      MOSUNNY   60  44  55 W3        29.99R
COLUMBUS       MOSUNNY   62  41  46 N15G22    29.93S
DAYTON         MOSUNNY   61  42  49 N6        29.99S
WILMINGTON     SUNNY     61  44  53 N14       29.96S
HUNTINGTON       N/A     61  46  57 VRB6      29.92R
CHARLESTON     PTSUNNY   59  46  62 N6        29.88S
PINEVILLE*     CLOUDY    53  44  70 MISG      29.93R
BECKLEY        CLOUDY    47  43  86 NW10      29.86R
$$

VAZ002-007-008-TNZ017-027-036-066-071-061600
...SOUTHWEST VIRGINIA/EAST TENNESSEE...

CITY           SKY/WX    TMP DP  RH WIND       PRES   REMARKS
WISE*          CLOUDY    48  43  81 N9G16     29.94R
BRISTOL        CLOUDY    53  44  71 SW8       29.92R
MORRISTOWN*    SUNNY     57  46  67 N9G17     29.94S
SEVIERVILLE*   MOSUNNY   57  45  62 VRB7      29.96S
KNOXVILLE      MOSUNNY   60  44  55 NW9       29.96F
OAK RIDGE      SUNNY     62  41  46 VRB3      29.98S
CROSSVILLE     MOSUNNY   58  41  53 N10G22    30.01R
NASHVILLE      MOSUNNY   65  45  48 NW6       30.05S
$$

...KEY TO REMARKS...
VSB - VISIBILITY IN MILES
WCI - WIND CHILL INDEX
HX  - HEAT INDEX

$$



USA.gov is the U.S. government's official web portal to all federal, state and local government web resources and services.